Printer-friendly version

IAU Minor Planet Center

Minor Planet Center

MPEC 2005-K52 : COMET C/2005 G1 (LINEAR)

The following Minor Planet Electronic Circular may be linked-to from your own Web pages, but must not otherwise be redistributed electronically.


Read MPEC 2005-K51 Read MPEC 2005-K53


M.P.E.C. 2005-K52                                Issued 2005 May 30, 14:22 UT

     The Minor Planet Electronic Circulars contain information on unusual
         minor planets and routine data on comets.  They are published
   on behalf of Commission 20 of the International Astronomical Union by the
          Minor Planet Center, Smithsonian Astrophysical Observatory,
                          Cambridge, MA 02138, U.S.A.

                  Supported in part by the Brinson Foundation
             Prepared using the Tamkin Foundation Computer Network

                              MPC@CFA.HARVARD.EDU
          URL http://cfa-www.harvard.edu/iau/mpc.html  ISSN 1523-6714

                           COMET C/2005 G1 (LINEAR)

Observations:
    CK05G010  C2005 05 27.98817 17 04 07.80 +58 38 44.5                 EK052048
    CK05G010  C2005 05 27.99251 17 04 07.43 +58 38 46.8                 EK052048
    CK05G010  C2005 05 27.99396 17 04 07.21 +58 38 46.6                 EK052048
    CK05G010  C2005 05 27.99830 17 04 06.69 +58 38 49.1                 EK052048
    CK05G010  C2005 05 27.99975 17 04 06.44 +58 38 50.8                 EK052048
    CK05G010  C2005 05 28.84770 17 02 24.24 +58 45 06.4          18.9 N EK052104
    CK05G010  C2005 05 28.85311 17 02 23.52 +58 45 09.0          19.2 N EK052104
    CK05G010  C2005 05 28.85852 17 02 22.85 +58 45 11.3          19.2 N EK052104
    CK05G010  C2005 05 28.86156 17 02 22.49 +58 45 12.1          19.3 N EK052104
    CK05G010  C2005 05 29.27454 17 01 32.21 +58 48 11.8          18.5 T EK052673
    CK05G010  C2005 05 29.28032 17 01 31.58 +58 48 13.9                 EK052673
    CK05G010  C2005 05 29.28692 17 01 30.68 +58 48 17.0                 EK052673
    CK05G010  C2005 05 29.29190 17 01 30.09 +58 48 19.3                 EK052673

Observer details:
048 Hradec Kralove.  Observer M. Lehky.  0.40-m f/5 reflector + CCD.
104 San Marcello Pistoiese.  Observers L. Tesi, M. Tombelli, G. Fagioli.
    Measurers G. Forti, L. Tesi, M. Tombelli.  0.60-m f/4 reflector + CCD.
673 Table Mountain Observatory, Wrightwood.  Observer J. Young.  0.6-m
    reflector + CCD.

Orbital elements:
    C/2005 G1 (LINEAR)
T 2006 Feb. 27.1121 TT                                  MPC
q   4.961369             (2000.0)            P               Q
                   Peri.  113.7915      -0.4505438      -0.3410390
                   Node   299.5914      -0.1544433      +0.9399997
e   1.0            Incl.  108.4138      +0.8792938      -0.0096399
From 147 observations 2005 Mar. 22-May 29.

Brian G. Marsden             (C) Copyright 2005 MPC           M.P.E.C. 2005-K52

Read MPEC 2005-K51 Read MPEC 2005-K53


Our Web policy. Index to the CBAT/MPC/ICQ pages.


Valid HTML 4.01!